Flag for U.S.A. Weather past 2 weeks in Independence, Missouri, U.S.A.

Now
77 °F

Sunny.


Feels Like: 79 °F
Forecast: 68 / 88 °F
Wind: No wind

Location: Lee's Summit Municipal Airport

Current Time: Jul 30, 2015 at 9:52:26 AM

Latest Report: Jul 30, 2015 at 8:53 AM


Visibility: 10 mi

Pressure: 30.20 "Hg

Humidity: 71%

Dew point: 67 °F

Location of IndependenceLocation

Historic Weather in Independence — Graph

°F

Independence temperature yesterday

Maximum temperature yesterday: 85 °F (at 2:53 PM)
Minimum temperature yesterday: 71 °F (at 6:53 AM)
Average temperature yesterday: 78 °F

Past Weeks' High & Low Weather Summary

 TemperatureHumidityPressure
High94 °F (Jul 24, 3:53 PM)97% (Jul 30, 6:53 AM)30.18 "Hg (Jul 30, 6:53 AM)
Low65 °F (Jul 22, 5:53 AM)46% (Jul 29, 2:53 PM)29.76 "Hg (Jul 16, 6:53 PM)
Average81 °F73%29.90 "Hg
* Reported Jul 15 7:53 AM — Jul 30 7:53 AM, Independence, Weather by CustomWeather, © 2015

Note: Actual official high and low records may vary slightly from our data, if they occured in-between our weather recording intervals... More about our weather records

Advertising

Independence weather history for previous 24 hours

 ConditionsComfort  
Time TempWeatherWind HumidityBarometerVisibility
7:53 AM
Thu, Jul 30
72 °FSunny.No wind81%30.18 "Hg10 mi
6:53 AM67 °FClear.No wind97%30.16 "Hg10 mi
5:53 AM66 °FClear.No wind96%30.15 "Hg9 mi
4:53 AM66 °FClear.3 mph93%30.16 "Hg7 mi
3:53 AM65 °FClear.No wind94%30.16 "Hg10 mi
2:53 AM67 °FClear.No wind90%30.16 "Hg10 mi
1:53 AM71 °FClear.No wind81%30.15 "Hg10 mi
12:53 AM69 °FClear.No wind87%30.15 "Hg10 mi
11:53 PM
Wed, Jul 29
73 °FClear.3 mph76%30.15 "Hg10 mi
10:53 PM73 °FClear.3 mph76%30.15 "Hg10 mi
9:53 PM75 °FClear.6 mph71%30.13 "Hg10 mi
8:53 PM77 °FSunny.5 mph69%30.12 "Hg10 mi
7:53 PM80 °FSunny.7 mph60%30.12 "Hg10 mi
6:53 PM82 °FSunny.9 mph56%30.11 "Hg10 mi
5:53 PM84 °FSunny.5 mph51%30.10 "Hg10 mi
4:53 PM85 °FSunny.9 mph51%30.10 "Hg10 mi
3:53 PM85 °FSunny.9 mph55%30.11 "Hg10 mi
2:53 PM85 °FSunny.13 mph46%30.11 "Hg10 mi
1:53 PM83 °FSunny.8 mph59%30.12 "Hg10 mi
12:53 PM82 °FSunny.8 mph63%30.12 "Hg10 mi
11:53 AM77 °FPassing clouds.8 mph79%30.12 "Hg10 mi
10:53 AM75 °FPartly sunny.10 mph85%30.09 "Hg10 mi
10:01 AM74 °FPartly sunny.12 mph88%30.14 "Hg10 mi
Weather by CustomWeather, © 2015

See weather overviewHow to use our weather pages